Parkersburg, WV

12:17 AM EDT on July 28, 2017 (GMT -0400)
Wood County Wilson

Weather History for KPKB - January, 2012

Change the Weather History Date:

Friday, January 6, 2012

  Actual Average Record
Temperature  
Mean Temperature 51 °F 32 °F  
Max Temperature 61 °F 40 °F 74 °F (1946)
Min Temperature 40 °F 24 °F -3 °F (1942)
Degree Days  
Heating Degree Days 14 33  
Month to date heating degree days 178 198  
Since 1 July heating degree days 1841 2108  
Cooling Degree Days 0 0  
Month to date cooling degree days 0 0  
Year to date cooling degree days 0 0  
Growing Degree Days 1 (Base 50)    
Moisture  
Dew Point 26 °F    
Average Humidity 39    
Maximum Humidity 49    
Minimum Humidity 29    
Precipitation  
Precipitation 0.00 in 0.09 in 0.78 in (2009)
Month to date precipitation 0.04 0.57  
Year to date precipitation 0.04 0.57  
Sea Level Pressure  
Sea Level Pressure 29.91 in    
Wind  
Wind Speed 10 mph (SSW)    
Max Wind Speed 20 mph    
Max Gust Speed 26 mph    
Visibility 10 miles    
Events      
T = Trace of Precipitation, MM = Missing Value Source: NWS Daily Summary

Daily Weather History Graph

Daily Weather History Graph

Search for Another Location

Airport or City:

Trip Planner

Search our weather history database for the weather conditions in past years. The results will help you decide how hot, cold, wet, or windy it might be!

Date:

Astronomy

Jan. 06, 2012 Rise Set
Actual Time 7:45 AM EST 5:17 PM EST
Civil Twilight 7:16 AM EST 5:47 PM EST
Nautical Twilight 6:42 AM EST 6:20 PM EST
Astronomical Twilight 6:10 AM EST 6:53 PM EST
Moon 3:06 PM EST (1/6) 5:24 AM EST (1/6)
Length of Visible Light 10h 31m
Length of Day
9h 31m
Waxing Gibbous, 93% of the Moon is Illuminated
Jan 6
Waxing Gibbous
Jan 9
Full
Jan 16
Last Quarter
Jan 23
New
Jan 30
First Quarter

Hourly Weather History & Observations

Time (EST) Temp. Windchill Dew Point Humidity Pressure Visibility Wind Dir Wind Speed Gust Speed Precip Events Conditions
12:53 AM 42.1 °F 36.1 °F 21.0 °F 43% 29.96 in 10.0 mi SSW 10.4 mph - N/A   Clear
1:53 AM 42.1 °F 36.6 °F 21.0 °F 43% 29.96 in 10.0 mi SSW 9.2 mph 17.3 mph N/A   Clear
2:53 AM 41.0 °F 35.8 °F 21.2 °F 45% 29.95 in 10.0 mi SSW 8.1 mph - N/A   Clear
3:53 AM 41.0 °F 35.2 °F 23.0 °F 49% 29.96 in 10.0 mi SSW 9.2 mph - N/A   Clear
4:53 AM 42.1 °F 36.1 °F 23.0 °F 47% 29.95 in 10.0 mi SSW 10.4 mph - N/A   Clear
5:53 AM 43.0 °F 36.4 °F 24.1 °F 47% 29.96 in 10.0 mi SSW 12.7 mph - N/A   Clear
6:53 AM 43.0 °F 37.2 °F 25.0 °F 49% 29.97 in 10.0 mi South 10.4 mph - N/A   Clear
7:53 AM 42.1 °F 36.6 °F 25.0 °F 51% 29.97 in 10.0 mi South 9.2 mph - N/A   Clear
8:53 AM 45.0 °F 39.7 °F 26.1 °F 48% 29.98 in 10.0 mi SSW 10.4 mph - N/A   Clear
9:53 AM 48.0 °F - 27.0 °F 44% 29.98 in 10.0 mi SSW 12.7 mph - N/A   Clear
10:53 AM 51.1 °F - 28.0 °F 41% 29.97 in 10.0 mi SSW 11.5 mph 20.7 mph N/A   Clear
11:53 AM 54.0 °F - 28.9 °F 38% 29.94 in 10.0 mi SSW 10.4 mph 17.3 mph N/A   Clear
12:53 PM 55.9 °F - 28.9 °F 36% 29.90 in 10.0 mi South 11.5 mph - N/A   Clear
1:53 PM 59.0 °F - 28.0 °F 31% 29.86 in 10.0 mi SSW 12.7 mph 20.7 mph N/A   Clear
2:53 PM 61.0 °F - 28.0 °F 29% 29.85 in 10.0 mi SW 10.4 mph 25.3 mph N/A   Clear
3:53 PM 60.1 °F - 28.0 °F 30% 29.85 in 10.0 mi SSW 11.5 mph 20.7 mph N/A   Clear
4:53 PM 57.9 °F - 28.0 °F 32% 29.85 in 10.0 mi SSW 9.2 mph - N/A   Clear
5:53 PM 57.0 °F - 27.0 °F 32% 29.86 in 10.0 mi SSW 8.1 mph - N/A   Clear
6:53 PM 55.9 °F - 27.0 °F 33% 29.86 in 10.0 mi SSW 5.8 mph - N/A   Clear
7:53 PM 53.1 °F - 27.0 °F 37% 29.87 in 10.0 mi SSW 6.9 mph - N/A   Clear
8:53 PM 54.0 °F - 26.1 °F 34% 29.88 in 10.0 mi SSW 9.2 mph - N/A   Clear
9:53 PM 53.1 °F - 25.0 °F 34% 29.88 in 10.0 mi SSW 8.1 mph 18.4 mph N/A   Clear
10:53 PM 52.0 °F - 25.0 °F 35% 29.87 in 10.0 mi SW 9.2 mph - N/A   Clear
11:53 PM 52.0 °F - 25.0 °F 35% 29.86 in 10.0 mi SSW 10.4 mph - N/A   Clear